Rbgn^[z[y[W
メイン
   新天体発見情報
     Comet C/2019 F1 (ATLAS-Africano)
投稿するにはまず登録を

フラット表示 前のトピック | 次のトピック
投稿者 スレッド
佐藤裕久
投稿日時: 2019-4-22 19:15
モデレータ
登録日: 2005-6-12
居住地: 日本
投稿: 2505
オンライン
Comet C/2019 F1 (ATLAS-Africano)

B. M. Africanoの通報によると、3月29.4日UT、Mt Lemmon スカイサーベイのコースに1.5-m 反射
望遠鏡で得たCCD画像から彗星を発見した。
個々のイメージはコンパクトな約7"の核とp.a. 300°に向かって少しぼやっとした尾が見える。
G. V. Williams (小惑星センター)は、この天体はHaleakalaにある小惑星地球衝突最終警報シス
テム Asteroid Terrestrial-impact Last Alert System (ATLAS)調査プログラムのコースに前夜、
0.5-m 反射望遠鏡で得た画像から外見上小惑星状天体を観測したと最初に通報があったと報告した。
小惑星センターのPCCP webpageに公表後、C. Caselli, L. Leonelli, A. Leonelli, P. Punzo, 
D. Alboresiと A. Valvasori (Bologna近郊、イタリア, 0.3-m f/5.6 反射望遠鏡 + (輝度フィルタ),
3月30.0日UT、90秒露出28枚を得た。この天体は恒星状で、約10".4と大変小さなコマ(R光度は17.8等)
の気配があるように見えるが尾の形跡はない)や佐藤英貴氏(東京都文京区, iTelescope 天文台, 
0.51-m f/6.8 アストログラフ, Mayhill近郊, ニューメキシコ州, 遠隔操作、3月30.3日、60秒露出
10枚のスタックで、強く集光した6"のコマがおよそ240°に向かって伸びて見えるが、明らかな尾は
ない。5".7の円形範囲で測定した光度は18.6等であった)らCCD位置観測者によって彗星状と観測された。

発見位置は次のとおり、

     2019 UT             R.A. (2000) Decl.       Mag.   Observer
     Mar. 28.52115   14 13 02.91   + 8 13 05.8   18.3   ATLAS
          28.52980   14 13 02.69   + 8 13 06.7   18.3     "
          28.53906   14 13 02.42   + 8 13 07.0   18.5     "
          28.54782   14 13 02.20   + 8 13 08.0   18.4     "
          29.41900   14 12 40.39   + 8 14 02.8   18.4   Africano
          29.42413   14 12 40.24   + 8 14 03.0   18.4     "
          29.42924   14 12 40.12   + 8 14 03.6   18.5     "
          29.43435   14 12 39.99   + 8 14 03.9   18.5     "
          29.44605   14 12 39.69   + 8 14 04.6   18.6     "
          29.45814   14 12 39.39   + 8 14 05.4   18.5     "
          29.47027   14 12 39.06   + 8 14 06.0   18.6     "
          29.48251   14 12 38.75   + 8 14 06.2            "

双曲線軌道要素と位置推算表は次のとおり、

Orbital elements:
    C/2019 F1 (ATLAS-Africano)
Epoch 2021 July 5.0 TT = JDT 2459400.5
T 2021 June 23.38945 TT                                 MPCW
q   3.5977045            (2000.0)            P               Q
z  -0.0006925      Peri.  251.13060     +0.09433451     +0.85664769
 +/-0.0004314      Node    38.73017     -0.27704021     +0.51194038
e   1.0024913      Incl.   54.16226     -0.95621636     -0.06381048
From 317 observations 2019 Feb. 8-Apr. 9, mean residual 0".5.

    C/2019 F1 (ATLAS-Africano)
Epoch 2019 Apr. 27.0 TT = JDT 2458600.5
T 2021 June 23.46401 TT                                 MPCW
q   3.5998163            (2000.0)            P               Q
z  -0.0004355      Peri.  251.08839     +0.09376928     +0.85670896
 +/-0.0004314      Node    38.73283     -0.27747199     +0.51175239
e   1.0015678      Incl.   54.15790     -0.95614676     -0.06449216
From 317 observations 2019 Feb. 8-Apr. 9, mean residual 0".5.

Ephemeris:
    C/2019 F1 (ATLAS-Africano)
Date    TT    R. A. (2000) Decl.     Delta      r     Elong.  Phase   m1
2019 03 10    14 19 32.3 +07 50 41   7.0332  7.7674   135.0     5.2  18.6
...
2019 03 25    14 14 28.3 +08 09 12   6.8040  7.6713   148.4     3.9  18.5
...
2019 04 02    14 11 07.8 +08 17 38   6.7057  7.6200   154.5     3.2  18.5
...
2019 04 08    14 08 23.8 +08 22 42   6.6441  7.5816   158.0     2.8  18.4
2019 04 09    14 07 55.5 +08 23 25   6.6348  7.5752   158.5     2.8  18.4
2019 04 10    14 07 27.0 +08 24 05   6.6259  7.5688   158.9     2.7  18.4
...
2019 04 16    14 04 31.7 +08 27 12   6.5785  7.5303   160.2     2.6  18.4
...
2019 04 24    14 00 30.5 +08 28 32   6.5321  7.4790   158.9     2.8  18.3
...
2019 05 09    13 52 58.0 +08 20 49   6.4961  7.3827   149.4     4.0  18.2

     This object was first reported by ATLAS (T05, Mar. 28) as a NEO candidate.
It was not posted to the NEOCP as its digest2 score was 61.  It was then
reported as a comet candidate by B. M. Africano (G96, Mar. 29), who described
the object as showing a compact core ~7" in diameter with a slight fuzzy tail
in P.A. 300.  C. Caselli et al. (L19, Mar. 30) described a star-like object
with a hint of coma 10".4 in diameter, but no tail.  K. Korlevic (L01) reported
a 13" coma and a 19" tail in P.A. 334.  L. Buzzi (204, Mar. 31), in stacked
images with a total exposure time of 25-m, described a 10" coma and a hint of
tail to the north-west.  A. Novichonok (094, Mar. 31) reported a 7".5 coma and
a 5" tail in P.A. 350.  H. Sato (Q11, Apr. 1) reported a strongly-condensed
8" coma, but no tail in ten stacked 60-s exposures.  A. Baransky (585, Apr. 4)
described an 8" coma and 10" tail in P.A. 331 in 25 stacked 60-s exposures.
R. Weryk (F51, Feb. 8, prediscovery images) reported a FWHM of ~2".2 (compared
to 1".55 +/- 0".10 for nearby stars) and a ~6" tail in P.A. 330.

(CBET 4619、MPEC 2019-G124)

フラット表示 前のトピック | 次のトピック

題名 投稿者 日時
 » Comet C/2019 F1 (ATLAS-Africano) 佐藤裕久 2019-4-22 19:15

投稿するにはまず登録を
 
© 1999 Tsutomu Seki.